Location: Cambridge (historical)
(38.6883°N, 119.0140°W)
Time: 06:00:22
(UTC+00:00)

VELOX 1 - Pass Details

Date: 29 September 2021
Orbit: 627 x 642 km, 98.3° (Epoch: 23 October)

Event Time Altitude Azimuth Distance (km) Brightness Sun altitude
Exits shadow 12:19:52 12° 322° (NW) 1,853 ? -18.4°
Drops below altitude 10° 12:20:20 10° 326° (NW) 2,012 ? -18.3°
Sets 12:22:44 0° 336° (NNW) 2,923 ? -17.9°
